• In Hungary
  • List of Countries
  • For 7 days
  • Water Temperature
  • Satellite Maps
  • Weather Map
  • News
  • Weather Widgets
  • user-avatar
    Login

    Hourly Weather New Delhi

    Today, 22 October, Sunday

    Time Temperature Precipitation Wind Pressure Humidity
    00:00 +28°C° 0 mm 1 mps 734 mmHg 20%
    01:00 +28°C° 0 mm 1 mps 734 mmHg 21%
    02:00 +27°C° 0 mm 1 mps 734 mmHg 21%
    03:00 +25°C° 0 mm 0 mps 734 mmHg 22%
    04:00 +25°C° 0 mm 0 mps 734 mmHg 22%
    05:00 +25°C° 0 mm 0 mps 734 mmHg 21%
    06:00 +26°C° 0 mm 0 mps 735 mmHg 21%
    07:00 +27°C° 0 mm 0 mps 735 mmHg 20%
    08:00 +28°C° 0 mm 0 mps 735 mmHg 20%
    09:00 +32°C° 0 mm 1 mps 735 mmHg 18%
    10:00 +34°C° 0 mm 1 mps 736 mmHg 15%
    11:00 +37°C° 0 mm 2 mps 736 mmHg 13%
    12:00 +38°C° 0 mm 2 mps 735 mmHg 12%
    13:00 +38°C° 0 mm 2 mps 735 mmHg 11%
    14:00 +39°C° 0 mm 2 mps 734 mmHg 9%
    15:00 +38°C° 0 mm 2 mps 734 mmHg 11%
    16:00 +37°C° 0 mm 2 mps 733 mmHg 12%
    17:00 +35°C° 0 mm 2 mps 733 mmHg 13%
    18:00 +34°C° 0 mm 2 mps 734 mmHg 15%
    19:00 +32°C° 0 mm 2 mps 734 mmHg 16%
    20:00 +31°C° 0 mm 2 mps 734 mmHg 18%
    21:00 +30°C° 0 mm 2 mps 734 mmHg 20%
    22:00 +29°C° 0 mm 2 mps 734 mmHg 23%
    23:00 +28°C° 0 mm 2 mps 735 mmHg 25%

    Tomorrow, 23 October, Monday

    Time Temperature Precipitation Wind Pressure Humidity
    00:00 +28°C° 0 mm 2 mps 735 mmHg 27%
    01:00 +27°C° 0 mm 1 mps 735 mmHg 29%
    02:00 +27°C° 0 mm 1 mps 734 mmHg 30%
    03:00 +27°C° 0 mm 1 mps 735 mmHg 31%
    04:00 +26°C° 0 mm 1 mps 735 mmHg 31%
    05:00 +26°C° 0 mm 1 mps 735 mmHg 31%
    06:00 +27°C° 0 mm 1 mps 736 mmHg 30%
    07:00 +27°C° 0 mm 1 mps 736 mmHg 29%
    08:00 +28°C° 0 mm 1 mps 737 mmHg 28%
    09:00 +30°C° 0 mm 1 mps 737 mmHg 25%
    10:00 +32°C° 0 mm 1 mps 738 mmHg 22%
    11:00 +34°C° 0 mm 1 mps 738 mmHg 19%
    12:00 +35°C° 0 mm 1 mps 737 mmHg 17%
    13:00 +34°C° 0 mm 0 mps 737 mmHg 15%
    14:00 +35°C° 0 mm 0 mps 736 mmHg 13%
    15:00 +34°C° 0 mm 0 mps 736 mmHg 13%
    16:00 +33°C° 0 mm 0 mps 736 mmHg 14%
    17:00 +34°C° 0 mm 1 mps 736 mmHg 14%
    18:00 +33°C° 0 mm 1 mps 736 mmHg 15%
    19:00 +32°C° 0 mm 1 mps 737 mmHg 16%
    20:00 +31°C° 0 mm 1 mps 737 mmHg 17%
    21:00 +30°C° 0 mm 1 mps 737 mmHg 19%
    22:00 +29°C° 0 mm 1 mps 737 mmHg 20%
    23:00 +29°C° 0 mm 1 mps 737 mmHg 21%

    Day after tomorrow, 24 October, Tuesday

    Time Temperature Precipitation Wind Pressure Humidity
    00:00 +28°C° 0 mm 1 mps 737 mmHg 22%
    01:00 +28°C° 0 mm 1 mps 737 mmHg 23%
    02:00 +27°C° 0 mm 1 mps 737 mmHg 23%
    03:00 +27°C° 0 mm 1 mps 737 mmHg 24%
    04:00 +26°C° 0 mm 1 mps 737 mmHg 24%
    05:00 +26°C° 0 mm 1 mps 737 mmHg 24%
    06:00 +27°C° 0 mm 1 mps 738 mmHg 23%
    07:00 +27°C° 0 mm 1 mps 738 mmHg 22%
    08:00 +28°C° 0 mm 1 mps 739 mmHg 22%
    09:00 +30°C° 0 mm 1 mps 739 mmHg 19%
    10:00 +32°C° 0 mm 1 mps 739 mmHg 16%
    11:00 +34°C° 0 mm 1 mps 739 mmHg 13%
    12:00 +35°C° 0 mm 1 mps 739 mmHg 12%
    13:00 +36°C° 0 mm 1 mps 738 mmHg 11%
    14:00 +37°C° 0 mm 2 mps 738 mmHg 10%
    15:00 +36°C° 0 mm 2 mps 738 mmHg 11%
    16:00 +35°C° 0 mm 2 mps 737 mmHg 13%
    17:00 +34°C° 0 mm 2 mps 737 mmHg 15%
    18:00 +32°C° 0 mm 1 mps 738 mmHg 16%
    19:00 +31°C° 0 mm 1 mps 738 mmHg 17%
    20:00 +30°C° 0 mm 1 mps 739 mmHg 18%
    21:00 +30°C° 0 mm 1 mps 739 mmHg 18%
    22:00 +29°C° 0 mm 1 mps 739 mmHg 19%
    23:00 +28°C° 0 mm 1 mps 739 mmHg 20%

    25 October, Wednesday

    Time Temperature Precipitation Wind Pressure Humidity
    00:00 +28°C° 0 mm 1 mps 739 mmHg 20%
    01:00 +27°C° 0 mm 1 mps 739 mmHg 20%
    02:00 +25°C° 0 mm 0 mps 738 mmHg 21%
    03:00 +24°C° 0 mm 0 mps 738 mmHg 21%
    04:00 +24°C° 0 mm 0 mps 739 mmHg 21%
    05:00 +23°C° 0 mm 0 mps 739 mmHg 22%
    06:00 +24°C° 0 mm 0 mps 739 mmHg 22%
    07:00 +25°C° 0 mm 0 mps 740 mmHg 22%
    08:00 +28°C° 0 mm 1 mps 741 mmHg 22%
    09:00 +30°C° 0 mm 1 mps 741 mmHg 20%
    10:00 +32°C° 0 mm 1 mps 741 mmHg 17%
    11:00 +34°C° 0 mm 1 mps 741 mmHg 15%
    12:00 +35°C° 0 mm 1 mps 741 mmHg 14%
    13:00 +35°C° 0 mm 1 mps 740 mmHg 12%
    14:00 +34°C° 0 mm 0 mps 740 mmHg 11%
    15:00 +35°C° 0 mm 1 mps 739 mmHg 12%
    16:00 +34°C° 0 mm 1 mps 739 mmHg 13%
    17:00 +33°C° 0 mm 1 mps 739 mmHg 14%
    18:00 +32°C° 0 mm 2 mps 739 mmHg 16%
    19:00 +30°C° 0 mm 2 mps 740 mmHg 18%
    20:00 +29°C° 0 mm 2 mps 740 mmHg 20%
    21:00 +29°C° 0 mm 2 mps 740 mmHg 23%
    22:00 +28°C° 0 mm 2 mps 740 mmHg 26%
    23:00 +27°C° 0 mm 2 mps 740 mmHg 28%

    26 October, Thursday

    Time Temperature Precipitation Wind Pressure Humidity
    00:00 +27°C° 0 mm 2 mps 740 mmHg 30%
    01:00 +26°C° 0 mm 2 mps 740 mmHg 33%
    02:00 +25°C° 0 mm 2 mps 740 mmHg 35%
    03:00 +25°C° 0 mm 2 mps 740 mmHg 36%
    04:00 +25°C° 0 mm 2 mps 740 mmHg 38%
    05:00 +24°C° 0 mm 2 mps 740 mmHg 40%
    06:00 +25°C° 0 mm 2 mps 740 mmHg 39%
    07:00 +26°C° 0 mm 2 mps 741 mmHg 38%
    08:00 +26°C° 0 mm 2 mps 741 mmHg 38%
    09:00 +28°C° 0 mm 2 mps 741 mmHg 33%
    10:00 +30°C° 0 mm 2 mps 741 mmHg 28%
    11:00 +32°C° 0 mm 2 mps 741 mmHg 23%
    12:00 +34°C° 0 mm 2 mps 741 mmHg 20%
    13:00 +34°C° 0 mm 1 mps 740 mmHg 18%
    14:00 +35°C° 0 mm 1 mps 740 mmHg 15%
    15:00 +34°C° 0 mm 1 mps 739 mmHg 16%
    16:00 +33°C° 0 mm 1 mps 739 mmHg 18%
    17:00 +32°C° 0 mm 2 mps 739 mmHg 19%
    18:00 +31°C° 0 mm 2 mps 739 mmHg 21%
    19:00 +30°C° 0 mm 2 mps 740 mmHg 23%
    20:00 +29°C° 0 mm 3 mps 740 mmHg 25%
    21:00 +28°C° 0 mm 3 mps 740 mmHg 28%
    22:00 +27°C° 0 mm 3 mps 740 mmHg 31%
    23:00 +27°C° 0 mm 2 mps 740 mmHg 33%

    27 October, Friday

    Time Temperature Precipitation Wind Pressure Humidity
    00:00 +26°C° 0 mm 2 mps 739 mmHg 36%
    01:00 +26°C° 0 mm 2 mps 739 mmHg 38%
    02:00 +25°C° 0 mm 2 mps 739 mmHg 40%
    03:00 +25°C° 0 mm 2 mps 739 mmHg 41%
    04:00 +24°C° 0 mm 2 mps 739 mmHg 42%
    05:00 +24°C° 0 mm 2 mps 739 mmHg 44%
    06:00 +25°C° 0 mm 2 mps 739 mmHg 42%
    07:00 +26°C° 0 mm 3 mps 740 mmHg 40%
    08:00 +26°C° 0 mm 3 mps 740 mmHg 39%
    09:00 +28°C° 0 mm 3 mps 740 mmHg 34%
    10:00 +30°C° 0 mm 3 mps 740 mmHg 29%
    11:00 +33°C° 0 mm 3 mps 740 mmHg 24%
    12:00 +34°C° 0 mm 2 mps 739 mmHg 22%
    13:00 +35°C° 0 mm 2 mps 739 mmHg 20%
    14:00 +36°C° 0 mm 2 mps 738 mmHg 19%
    15:00 +35°C° 0 mm 2 mps 738 mmHg 21%
    16:00 +34°C° 0 mm 2 mps 738 mmHg 22%
    17:00 +32°C° 0 mm 2 mps 737 mmHg 24%
    18:00 +31°C° 0 mm 2 mps 738 mmHg 26%
    19:00 +30°C° 0 mm 2 mps 738 mmHg 28%
    20:00 +29°C° 0 mm 2 mps 739 mmHg 30%
    21:00 +28°C° 0 mm 2 mps 739 mmHg 32%
    22:00 +28°C° 0 mm 2 mps 739 mmHg 33%
    23:00 +27°C° 0 mm 2 mps 739 mmHg 35%
    Show more